Regional Weather Roundup
Issued by NWS

Home | Current Version | Previous Version | Text Only | Print | Product List | Glossary Off
Versions: 1 2 3 4 5 6 7 8 9 10 11 12 13 14 15 16 17 18 19 20 21 22 23 24 25 26 27 28 29 30 31 32 33 34 35 36 37 38 39 40 41 42 43 44 45 46 47 48 49 50

000
ASUS43 KLSX 270807
RWRMO

WEATHER SUMMARY FOR MISSOURI
NATIONAL WEATHER SERVICE SPRINGFIELD MO
200 AM CST THU NOV 27 2014

NOTE: "FAIR" INDICATES FEW OR NO CLOUDS BELOW 12,000 FEET WITH NO
       SIGNIFICANT WEATHER AND/OR OBSTRUCTIONS TO VISIBILITY.
       CURRENT SKY AND/OR WEATHER CONDITIONS ARE NOT AVAILABLE FOR
       CHILLICOTHE AND FARMINGTON.

MOZ001>031-035>038-043-044-053-054-270900-
...NORTHERN AND WESTERN MISSOURI...

CITY           SKY/WX    TMP DP  RH WIND       PRES   REMARKS
KANSAS CTY INT CLOUDY    26  21  81 NW12      30.46R WCI  16
KANSAS C DTWN  CLOUDY    29  21  72 NW14G21   30.47R WCI  18
LEE`S SUMMIT   CLOUDY    28  21  75 NW9       30.44R WCI  19
ST JOSEPH      CLOUDY    26  20  77 NW12      30.48R WCI  16
CHILLICOTHE      N/A     28  22  78 NW10G17   30.43R WCI  19
KIRKSVILLE     CLOUDY    30  27  88 NW10      30.36R FOG     WCI  21

$$
MOZ066>068-077>081-088>096-101>105-270900-
...SOUTHWEST MISSOURI...

CITY           SKY/WX    TMP DP  RH WIND       PRES   REMARKS
SPRINGFIELD    CLOUDY    31  24  75 NW18      30.37R WCI  19
JOPLIN         CLEAR     28  22  78 N9        30.44R WCI  19

$$
MOZ032>034-039>042-045>050-055>058-069>072-270900-
...CENTRAL MISSOURI...

CITY           SKY/WX    TMP DP  RH WIND       PRES   REMARKS
COLUMBIA       CLOUDY    32  28  85 NW13      30.35R WCI  22
JEFFERSON CITY CLOUDY    34  28  79 NW9       30.37R WCI  27
ROLLA          CLOUDY    31  29  92 NW14      30.30R FOG     WCI  21
SEDALIA        CLOUDY    31  25  78 NW16G22   30.41R WCI  20
WHITEMAN AFB   CLOUDY    29  24  78 NW12      30.42R WCI  20
WARRENSBURG    CLOUDY    30  23  74 W10G17    30.44R WCI  21
OSAGE BEACH    CLOUDY    32  27  80 NW6       30.37R WCI  26

$$
MOZ051-052-059>065-270900-
...EAST CENTRAL MISSOURI...

CITY           SKY/WX    TMP DP  RH WIND       PRES   REMARKS
ST LOUIS INTL  LGT SNOW  32  27  81 N13       30.31R FOG     WCI  22
SPIRIT OF STL  CLOUDY    31  28  89 N8        30.31R WCI  23
ST CHARLES     CLOUDY    30  27  88 N12       30.32R WCI  20

$$
MOZ072>076-082>087-097>100-106>115-270900-
...SOUTH CENTRAL AND SOUTHEAST MISSOURI...

CITY           SKY/WX    TMP DP  RH WIND       PRES   REMARKS
CAPE GIRARDEAU CLOUDY    37  32  82 NW14      30.23R WCI  28
FARMINGTON     CLOUDY    34  30  86 W9G21     30.26R WCI  26
POPLAR BLUFF   CLOUDY    37  28  70 NW14      30.26R WCI  28
WEST PLAINS    CLOUDY    32  25  75 NW16G26   30.31R WCI  21

$$


USA.gov is the U.S. government's official web portal to all federal, state and local government web resources and services.